Weather - Helsinki Query any day in the database

Current weather  

Weather data for a selected day (2006-01-01 -2020-10-31)
Enter date:     <-     scroll days         ->
day curves
Low temperature°C +6.001:50
High temperature°C +11.014:20
Low wind chill°C 0.400:20
Average temperature°C +8.8 
High wind speed (10 min) m/s 12.000:20
Low pressurehPa 975.022:50
High pressurehPa 991.000:20
Low R.H% 8703:50
High R.H% 10014:50
Day weather data as a table
Date Time Temp
°C
Chill
°C
Pressure
hPA
Wind
m/s
Hum
%
Precip
mm
2009-10-04 23:50:00 7.0  4.3  976.0 4.0 93 -
2009-10-04 23:20:00 8.0  5.1  976.0 5.0 87 -
2009-10-04 22:50:00 8.0  5.5  975.0 4.0 87 -
2009-10-04 22:20:00 8.0  6.1  975.0 3.0 93 -
2009-10-04 21:50:00 8.0  6.8  976.0 2.0 93 -
2009-10-04 21:20:00 8.0  5.5  975.0 4.0 93 -
2009-10-04 20:50:00 8.0  6.1  975.0 3.0 93 -
2009-10-04 20:20:00 9.0  6.3  976.0 5.0 87 -
2009-10-04 19:50:00 8.0  5.1  976.0 5.0 93 -
2009-10-04 19:20:00 9.0  7.3  976.0 3.0 87 -
2009-10-04 18:50:00 9.0  6.8  976.0 4.0 87 -
2009-10-04 18:20:00 9.0  6.0  976.0 6.0 93 -
2009-10-04 17:50:00 10.0  7.2  976.0 6.0 87 -
2009-10-04 17:20:00 9.0  6.3  976.0 5.0 93 -
2009-10-04 16:50:00 9.0  6.0  977.0 6.0 87 -
2009-10-04 16:20:00 9.0  6.0  977.0 6.0 93 -
2009-10-04 15:50:00 10.0  7.6  977.0 5.0 87 -
2009-10-04 15:20:00 9.0  6.3  977.0 5.0 93 -
2009-10-04 14:50:00 8.0  5.5  977.0 4.0 100 -
2009-10-04 14:20:00 11.0  9.2  977.0 4.0 87 -
2009-10-04 13:50:00 10.0  8.0  978.0 4.0 93 -
2009-10-04 13:20:00 9.0  6.8  978.0 4.0 93 -
2009-10-04 12:50:00 9.0  7.3  978.0 3.0 93 -
2009-10-04 12:20:00 9.0  6.3  978.0 5.0 93 -
2009-10-04 11:50:00 9.0  6.3  979.0 5.0 87 -
2009-10-04 11:20:00 9.0  6.3  979.0 5.0 93 -
2009-10-04 10:50:00 10.0  6.9  979.0 7.0 87 -
2009-10-04 10:20:00 10.0  8.0  979.0 4.0 87 -
2009-10-04 09:50:00 9.0  6.3  978.0 5.0 93 -
2009-10-04 09:20:00 9.0  6.3  978.0 5.0 93 -
2009-10-04 08:50:00 9.0  6.3  979.0 5.0 93 -
2009-10-04 08:20:00 9.0  6.3  978.0 5.0 93 -
2009-10-04 07:50:00 9.0  6.0  978.0 6.0 93 -
2009-10-04 07:20:00 10.0  6.9  978.0 7.0 87 -
2009-10-04 06:50:00 10.0  7.6  978.0 5.0 93 -
2009-10-04 06:20:00 11.0  7.7  979.0 9.0 87 -
2009-10-04 05:50:00 11.0  7.3  979.0 11.0 87 -
2009-10-04 05:20:00 10.0  6.4  979.0 9.0 93 -
2009-10-04 04:50:00 10.0  6.4  980.0 9.0 87 -
2009-10-04 04:20:00 9.0  5.1  981.0 9.0 93 -
2009-10-04 03:50:00 9.0  5.4  982.0 8.0 87 -
2009-10-04 03:20:00 8.0  3.8  983.0 9.0 93 -
2009-10-04 02:50:00 7.0  2.8  985.0 8.0 93 -
2009-10-04 02:20:00 7.0  2.8  986.0 8.0 93 -
2009-10-04 01:50:00 6.0  0.9  987.0 10.0 93 -
2009-10-04 01:20:00 6.0  0.7  988.0 11.0 93 -
2009-10-04 00:50:00 6.0  0.7  990.0 11.0 93 -
2009-10-04 00:20:00 6.0  0.4  991.0 12.0 93 -
Unit conversions: